Location: Unspecified
(0.0000°N, 0.0000°E)
Time: 07:02:00
(UTC+00:00)

deb Explorer IX - Visible Passes

Search period start: 30 July 2014 00:00
Search period end: 09 August 2014 00:00
Orbit: 556 x 1221 km, 38.8° (Epoch: 29 July)

Date Brightness Start Highest point End Pass type
(mag) Time Alt. Az. Time Alt. Az. Time Alt. Az.
30 Jul ? 20:35:19 10° NNW 20:39:48 24° NNE 20:39:48 24° NNE visible
31 Jul ? 20:32:32 10° NNW 20:37:49 32° NNE 20:37:49 32° NNE visible
01 Aug ? 20:29:56 10° NNW 20:35:54 42° N 20:35:54 42° N visible
02 Aug ? 18:42:06 10° N 18:45:51 14° NE 18:49:38 10° ENE visible
02 Aug ? 20:27:27 10° NW 20:34:03 56° N 20:34:03 56° N visible
03 Aug ? 18:38:39 10° N 18:43:47 19° NE 18:49:03 10° E visible
03 Aug ? 20:25:06 10° NW 20:32:16 73° NNW 20:32:16 73° NNW visible
04 Aug ? 18:35:36 10° NNW 18:41:39 25° NE 18:47:49 10° E visible
04 Aug ? 20:22:53 10° NW 20:30:33 77° WSW 20:30:33 77° WSW visible
05 Aug ? 18:32:48 10° NNW 18:39:27 33° NE 18:46:09 11° E visible
05 Aug ? 20:20:49 10° WNW 20:28:32 60° SW 20:28:53 59° SSW visible
06 Aug ? 18:30:10 10° NNW 18:37:13 44° NE 18:44:31 11° ESE visible
06 Aug ? 20:18:53 10° WNW 20:26:17 45° SW 20:27:16 43° SSW visible
07 Aug ? 05:41:31 10° SSE 05:42:54 11° SE 05:44:14 10° SE visible
07 Aug ? 18:27:39 10° NW 18:34:56 59° NE 18:42:45 10° ESE visible
07 Aug ? 20:17:09 10° WNW 20:24:03 34° SW 20:25:41 31° SSW visible
08 Aug ? 05:37:44 10° S 05:40:53 18° SE 05:43:48 10° E visible
08 Aug ? 18:25:17 10° NW 18:32:38 77° NE 18:40:37 10° SE visible
08 Aug ? 20:15:39 10° W 20:21:52 26° SW 20:24:06 23° SSW visible
